Location: Newark
(31.5350°N, 35.0986°E)
Time: 18:36:31
(UTC+00:00)

Transit 4A - Pass Details

Date: 18 October 2019
Orbit: 869 x 976 km, 66.8° (Epoch: 21 November)

Event Time Altitude Azimuth Distance (km) Brightness Sun altitude
Rises 03:42:03 0° 243° (WSW) 3,660 10.5 -1.3°
Reaches altitude 10° 03:45:18 10° 259° (W) 2,710 9.8 -0.7°
Maximum altitude 03:49:57 21° 306° (NW) 2,017 9.2 0.3°
Drops below altitude 10° 03:54:33 10° 354° (N) 2,681 10.2 1.3°
Sets 03:57:47 0° 10° (N) 3,611 11.0 1.9°
